contact:dominique.lefevre@mio.osupytheas.fr, maurice.libes@osupytheas.fr, didier.mallarino@osupytheas.fr
Project:EMSO http://www.emso-fr.org/EMSO-France
Depth: 2436.0 m
Title:EMSO Ligure Ouest : Data MII capteur MICROCAT
DateTime_Computer,Latitude,Longitude,Temperature,Conductivity,Pressure,DateTime_Instrument
DateTime_Computer,Latitude,Longitude,degC,S m-1,dbar,DateTime_Instrument
2022-10-18T00:00:53Z,42.805,6.029,13.3014,4.60055,2470.646,2022-10-18T02:02:49Z
2022-10-18T00:03:56Z,42.805,6.029,13.3011,4.60055,2470.684,2022-10-18T02:05:52Z
2022-10-18T00:07:00Z,42.805,6.029,13.3011,4.60060,2470.67,2022-10-18T02:08:55Z
2022-10-18T00:10:03Z,42.805,6.029,13.3009,4.60054,2470.707,2022-10-18T02:11:58Z
2022-10-18T00:13:06Z,42.805,6.029,13.3014,4.60054,2470.646,2022-10-18T02:15:01Z
2022-10-18T00:16:09Z,42.805,6.029,13.3010,4.60055,2470.646,2022-10-18T02:18:04Z
2022-10-18T00:19:12Z,42.805,6.029,13.3014,4.60054,2470.646,2022-10-18T02:21:07Z
2022-10-18T00:22:15Z,42.805,6.029,13.3010,4.60056,2470.693,2022-10-18T02:24:10Z
2022-10-18T00:25:18Z,42.805,6.029,13.3011,4.60054,2470.661,2022-10-18T02:27:13Z
2022-10-18T00:28:21Z,42.805,6.029,13.3013,4.60055,2470.67,2022-10-18T02:30:16Z
2022-10-18T00:31:24Z,42.805,6.029,13.3010,4.60054,2470.646,2022-10-18T02:33:20Z
2022-10-18T00:34:27Z,42.805,6.029,13.3009,4.60053,2470.646,2022-10-18T02:36:23Z
2022-10-18T00:37:30Z,42.805,6.029,13.3007,4.60052,2470.67,2022-10-18T02:39:26Z
2022-10-18T00:40:33Z,42.805,6.029,13.3011,4.60053,2470.646,2022-10-18T02:42:29Z
2022-10-18T00:43:36Z,42.805,6.029,13.3013,4.60055,2470.637,2022-10-18T02:45:32Z
2022-10-18T00:46:40Z,42.805,6.029,13.3010,4.60054,2470.693,2022-10-18T02:48:35Z
2022-10-18T00:49:43Z,42.805,6.029,13.3011,4.60053,2470.624,2022-10-18T02:51:38Z
2022-10-18T00:52:46Z,42.805,6.029,13.3004,4.60066,2470.67,2022-10-18T02:54:41Z
2022-10-18T00:55:49Z,42.805,6.029,13.3010,4.60055,2470.684,2022-10-18T02:57:44Z
2022-10-18T00:58:52Z,42.805,6.029,13.3011,4.60055,2470.646,2022-10-18T03:00:47Z
2022-10-18T01:01:55Z,42.805,6.029,13.3011,4.60054,2470.646,2022-10-18T03:03:50Z
2022-10-18T01:04:58Z,42.805,6.029,13.3013,4.60054,2470.693,2022-10-18T03:06:53Z
2022-10-18T01:08:01Z,42.805,6.029,13.3010,4.60054,2470.646,2022-10-18T03:09:56Z
2022-10-18T01:11:04Z,42.805,6.029,13.3014,4.60054,2470.646,2022-10-18T03:13:00Z
2022-10-18T01:14:07Z,42.805,6.029,13.3014,4.60054,2470.661,2022-10-18T03:16:03Z
2022-10-18T01:17:10Z,42.805,6.029,13.3010,4.60054,2470.624,2022-10-18T03:19:06Z
2022-10-18T01:20:13Z,42.805,6.029,13.3011,4.60055,2470.67,2022-10-18T03:22:09Z
2022-10-18T01:23:16Z,42.805,6.029,13.3013,4.60057,2470.646,2022-10-18T03:25:12Z
2022-10-18T01:26:20Z,42.805,6.029,13.3009,4.60057,2470.646,2022-10-18T03:28:15Z
2022-10-18T01:29:23Z,42.805,6.029,13.3011,4.60054,2470.646,2022-10-18T03:31:18Z
2022-10-18T01:32:26Z,42.805,6.029,13.3010,4.60055,2470.661,2022-10-18T03:34:21Z
2022-10-18T01:35:29Z,42.805,6.029,13.3011,4.60055,2470.67,2022-10-18T03:37:24Z
2022-10-18T01:38:32Z,42.805,6.029,13.3016,4.60054,2470.646,2022-10-18T03:40:27Z
2022-10-18T01:41:35Z,42.805,6.029,13.3011,4.60054,2470.646,2022-10-18T03:43:30Z
2022-10-18T01:44:38Z,42.805,6.029,13.3011,4.60054,2470.661,2022-10-18T03:46:33Z
2022-10-18T01:47:41Z,42.805,6.029,13.3010,4.60054,2470.684,2022-10-18T03:49:37Z
2022-10-18T01:50:44Z,42.805,6.029,13.3011,4.60054,2470.646,2022-10-18T03:52:40Z
2022-10-18T01:53:47Z,42.805,6.029,13.3012,4.60057,2470.646,2022-10-18T03:55:43Z
2022-10-18T01:56:50Z,42.805,6.029,13.3009,4.60064,2470.646,2022-10-18T03:58:46Z
2022-10-18T01:59:53Z,42.805,6.029,13.3013,4.60057,2470.624,2022-10-18T04:01:49Z
2022-10-18T02:02:56Z,42.805,6.029,13.3008,4.60054,2470.684,2022-10-18T04:04:52Z
2022-10-18T02:06:00Z,42.805,6.029,13.3011,4.60053,2470.646,2022-10-18T04:07:55Z
2022-10-18T02:09:03Z,42.805,6.029,13.3008,4.60054,2470.624,2022-10-18T04:10:58Z
2022-10-18T02:12:06Z,42.805,6.029,13.3011,4.60052,2470.661,2022-10-18T04:14:01Z
2022-10-18T02:15:09Z,42.805,6.029,13.3009,4.60053,2470.646,2022-10-18T04:17:04Z
2022-10-18T02:18:12Z,42.805,6.029,13.3008,4.60053,2470.646,2022-10-18T04:20:07Z
2022-10-18T02:21:15Z,42.805,6.029,13.3008,4.60056,2470.67,2022-10-18T04:23:10Z
2022-10-18T02:24:18Z,42.805,6.029,13.3011,4.60053,2470.624,2022-10-18T04:26:13Z
2022-10-18T02:27:21Z,42.805,6.029,13.3009,4.60053,2470.624,2022-10-18T04:29:17Z
2022-10-18T02:30:24Z,42.805,6.029,13.3011,4.60054,2470.661,2022-10-18T04:32:20Z
2022-10-18T02:33:27Z,42.805,6.029,13.3009,4.60062,2470.646,2022-10-18T04:35:23Z
2022-10-18T02:36:30Z,42.805,6.029,13.3011,4.60053,2470.661,2022-10-18T04:38:26Z
2022-10-18T02:39:33Z,42.805,6.029,13.3009,4.60054,2470.646,2022-10-18T04:41:29Z
2022-10-18T02:42:36Z,42.805,6.029,13.3011,4.60055,2470.637,2022-10-18T04:44:32Z
2022-10-18T02:45:40Z,42.805,6.029,13.3013,4.60054,2470.661,2022-10-18T04:47:35Z
2022-10-18T02:48:43Z,42.805,6.029,13.3010,4.60055,2470.646,2022-10-18T04:50:38Z
2022-10-18T02:51:46Z,42.805,6.029,13.3009,4.60055,2470.646,2022-10-18T04:53:41Z
2022-10-18T02:54:49Z,42.805,6.029,13.3015,4.60055,2470.661,2022-10-18T04:56:44Z
2022-10-18T02:57:52Z,42.805,6.029,13.3008,4.60058,2470.646,2022-10-18T04:59:47Z
2022-10-18T03:00:55Z,42.805,6.029,13.3009,4.60059,2470.624,2022-10-18T05:02:50Z
2022-10-18T03:03:58Z,42.805,6.029,13.3010,4.60057,2470.67,2022-10-18T05:05:53Z
2022-10-18T03:07:01Z,42.805,6.029,13.3011,4.60054,2470.646,2022-10-18T05:08:57Z
2022-10-18T03:10:04Z,42.805,6.029,13.3013,4.60057,2470.646,2022-10-18T05:12:00Z
2022-10-18T03:13:07Z,42.805,6.029,13.3010,4.60057,2470.67,2022-10-18T05:15:03Z
2022-10-18T03:16:10Z,42.805,6.029,13.3011,4.60058,2470.624,2022-10-18T05:18:06Z
2022-10-18T03:19:13Z,42.805,6.029,13.3006,4.60058,2470.67,2022-10-18T05:21:09Z
2022-10-18T03:22:17Z,42.805,6.029,13.3009,4.60056,2470.661,2022-10-18T05:24:12Z
2022-10-18T03:25:20Z,42.805,6.029,13.3012,4.60055,2470.637,2022-10-18T05:27:15Z
2022-10-18T03:28:23Z,42.805,6.029,13.3011,4.60056,2470.646,2022-10-18T05:30:18Z
2022-10-18T03:31:26Z,42.805,6.029,13.3012,4.60060,2470.646,2022-10-18T05:33:21Z
2022-10-18T03:34:29Z,42.805,6.029,13.3011,4.60056,2470.646,2022-10-18T05:36:24Z
2022-10-18T03:37:32Z,42.805,6.029,13.3005,4.60056,2470.637,2022-10-18T05:39:27Z
2022-10-18T03:40:35Z,42.805,6.029,13.3009,4.60056,2470.637,2022-10-18T05:42:30Z
2022-10-18T03:43:38Z,42.805,6.029,13.3010,4.60058,2470.646,2022-10-18T05:45:33Z
2022-10-18T03:46:41Z,42.805,6.029,13.3008,4.60055,2470.646,2022-10-18T05:48:37Z
2022-10-18T03:49:44Z,42.805,6.029,13.3006,4.60067,2470.624,2022-10-18T05:51:40Z
2022-10-18T03:52:47Z,42.805,6.029,13.3010,4.60066,2470.637,2022-10-18T05:54:43Z
2022-10-18T03:55:50Z,42.805,6.029,13.3011,4.60057,2470.614,2022-10-18T05:57:46Z
2022-10-18T03:58:53Z,42.805,6.029,13.3010,4.60062,2470.646,2022-10-18T06:00:49Z
2022-10-18T04:01:56Z,42.805,6.029,13.3014,4.60056,2470.646,2022-10-18T06:03:52Z
2022-10-18T04:05:00Z,42.805,6.029,13.3015,4.60057,2470.67,2022-10-18T06:06:55Z
2022-10-18T04:08:03Z,42.805,6.029,13.3008,4.60057,2470.646,2022-10-18T06:09:58Z
2022-10-18T04:11:06Z,42.805,6.029,13.3010,4.60060,2470.661,2022-10-18T06:13:01Z
2022-10-18T04:14:09Z,42.805,6.029,13.3007,4.60056,2470.637,2022-10-18T06:16:04Z
2022-10-18T04:17:12Z,42.805,6.029,13.3009,4.60056,2470.684,2022-10-18T06:19:07Z
2022-10-18T04:20:15Z,42.805,6.029,13.3010,4.60056,2470.624,2022-10-18T06:22:10Z
2022-10-18T04:23:18Z,42.805,6.029,13.3011,4.60055,2470.684,2022-10-18T06:25:13Z
2022-10-18T04:26:21Z,42.805,6.029,13.3009,4.60055,2470.661,2022-10-18T06:28:17Z
2022-10-18T04:29:24Z,42.805,6.029,13.3009,4.60057,2470.637,2022-10-18T06:31:20Z
2022-10-18T04:32:27Z,42.805,6.029,13.3009,4.60063,2470.646,2022-10-18T06:34:23Z
2022-10-18T04:35:30Z,42.805,6.029,13.3011,4.60058,2470.646,2022-10-18T06:37:26Z
2022-10-18T04:38:33Z,42.805,6.029,13.3011,4.60065,2470.661,2022-10-18T06:40:29Z
2022-10-18T04:41:37Z,42.805,6.029,13.3012,4.60056,2470.684,2022-10-18T06:43:32Z
2022-10-18T04:44:40Z,42.805,6.029,13.3009,4.60058,2470.661,2022-10-18T06:46:35Z
2022-10-18T04:47:43Z,42.805,6.029,13.3008,4.60057,2470.624,2022-10-18T06:49:38Z
2022-10-18T04:50:46Z,42.805,6.029,13.3009,4.60055,2470.646,2022-10-18T06:52:41Z
2022-10-18T04:53:49Z,42.805,6.029,13.3012,4.60055,2470.624,2022-10-18T06:55:44Z
2022-10-18T04:56:52Z,42.805,6.029,13.3010,4.60055,2470.646,2022-10-18T06:58:47Z
2022-10-18T04:59:55Z,42.805,6.029,13.3011,4.60055,2470.624,2022-10-18T07:01:50Z
2022-10-18T05:02:58Z,42.805,6.029,13.3011,4.60060,2470.624,2022-10-18T07:04:54Z
2022-10-18T05:06:01Z,42.805,6.029,13.3011,4.60062,2470.684,2022-10-18T07:07:57Z
2022-10-18T05:09:04Z,42.805,6.029,13.3014,4.60057,2470.624,2022-10-18T07:11:00Z
2022-10-18T05:12:07Z,42.805,6.029,13.3009,4.60066,2470.637,2022-10-18T07:14:03Z
2022-10-18T05:15:10Z,42.805,6.029,13.3009,4.60064,2470.624,2022-10-18T07:17:06Z
2022-10-18T05:18:13Z,42.805,6.029,13.3014,4.60059,2470.637,2022-10-18T07:20:09Z
2022-10-18T05:21:17Z,42.805,6.029,13.3009,4.60055,2470.637,2022-10-18T07:23:12Z
2022-10-18T05:24:20Z,42.805,6.029,13.3009,4.60058,2470.624,2022-10-18T07:26:15Z
2022-10-18T05:27:23Z,42.805,6.029,13.3010,4.60057,2470.624,2022-10-18T07:29:18Z
2022-10-18T05:30:26Z,42.805,6.029,13.3014,4.60058,2470.614,2022-10-18T07:32:21Z
2022-10-18T05:33:29Z,42.805,6.029,13.3009,4.60060,2470.661,2022-10-18T07:35:24Z
2022-10-18T05:36:32Z,42.805,6.029,13.3011,4.60064,2470.624,2022-10-18T07:38:27Z
2022-10-18T05:39:35Z,42.805,6.029,13.3012,4.60060,2470.646,2022-10-18T07:41:30Z
2022-10-18T05:42:38Z,42.805,6.029,13.3011,4.60058,2470.661,2022-10-18T07:44:34Z
2022-10-18T05:45:41Z,42.805,6.029,13.3011,4.60054,2470.637,2022-10-18T07:47:37Z
2022-10-18T05:48:44Z,42.805,6.029,13.3011,4.60057,2470.614,2022-10-18T07:50:40Z
2022-10-18T05:51:47Z,42.805,6.029,13.3011,4.60055,2470.637,2022-10-18T07:53:43Z
2022-10-18T05:54:50Z,42.805,6.029,13.3012,4.60056,2470.624,2022-10-18T07:56:46Z
2022-10-18T05:57:53Z,42.805,6.029,13.3006,4.60057,2470.646,2022-10-18T07:59:49Z
2022-10-18T06:00:57Z,42.805,6.029,13.3013,4.60059,2470.624,2022-10-18T08:02:52Z
2022-10-18T06:04:00Z,42.805,6.029,13.3006,4.60056,2470.637,2022-10-18T08:05:55Z
2022-10-18T06:07:03Z,42.805,6.029,13.3004,4.60066,2470.646,2022-10-18T08:08:58Z
2022-10-18T06:10:06Z,42.805,6.029,13.3012,4.60057,2470.6,2022-10-18T08:12:01Z
2022-10-18T06:13:09Z,42.805,6.029,13.3011,4.60055,2470.6,2022-10-18T08:15:04Z
2022-10-18T06:16:12Z,42.805,6.029,13.3010,4.60057,2470.586,2022-10-18T08:18:07Z
2022-10-18T06:19:15Z,42.805,6.029,13.3013,4.60054,2470.577,2022-10-18T08:21:10Z
2022-10-18T06:22:18Z,42.805,6.029,13.3009,4.60056,2470.61,2022-10-18T08:24:14Z
2022-10-18T06:25:21Z,42.805,6.029,13.3008,4.60054,2470.646,2022-10-18T08:27:17Z
2022-10-18T06:28:24Z,42.805,6.029,13.3010,4.60060,2470.614,2022-10-18T08:30:20Z
2022-10-18T06:31:27Z,42.805,6.029,13.3009,4.60058,2470.624,2022-10-18T08:33:23Z
2022-10-18T06:34:30Z,42.805,6.029,13.3007,4.60061,2470.577,2022-10-18T08:36:26Z
2022-10-18T06:37:34Z,42.805,6.029,13.3008,4.60060,2470.6,2022-10-18T08:39:29Z
2022-10-18T06:40:37Z,42.805,6.029,13.3011,4.60060,2470.614,2022-10-18T08:42:32Z
2022-10-18T06:43:40Z,42.805,6.029,13.3011,4.60064,2470.591,2022-10-18T08:45:35Z
2022-10-18T06:46:43Z,42.805,6.029,13.3009,4.60062,2470.637,2022-10-18T08:48:38Z
2022-10-18T06:49:46Z,42.805,6.029,13.3013,4.60056,2470.624,2022-10-18T08:51:41Z
2022-10-18T06:52:49Z,42.805,6.029,13.3012,4.60055,2470.661,2022-10-18T08:54:44Z
2022-10-18T06:55:52Z,42.805,6.029,13.3010,4.60058,2470.6,2022-10-18T08:57:47Z
2022-10-18T06:58:55Z,42.805,6.029,13.3009,4.60057,2470.661,2022-10-18T09:00:50Z
2022-10-18T07:01:58Z,42.805,6.029,13.3009,4.60059,2470.624,2022-10-18T09:03:54Z
2022-10-18T07:05:01Z,42.805,6.029,13.3009,4.60057,2470.6,2022-10-18T09:06:57Z
2022-10-18T07:08:04Z,42.805,6.029,13.3010,4.60054,2470.624,2022-10-18T09:10:00Z
2022-10-18T07:11:07Z,42.805,6.029,13.3011,4.60061,2470.591,2022-10-18T09:13:03Z
2022-10-18T07:14:10Z,42.805,6.029,13.3010,4.60059,2470.646,2022-10-18T09:16:06Z
2022-10-18T07:17:13Z,42.805,6.029,13.3009,4.60058,2470.624,2022-10-18T09:19:09Z
2022-10-18T07:20:17Z,42.805,6.029,13.3010,4.60059,2470.6,2022-10-18T09:22:12Z
2022-10-18T07:23:20Z,42.805,6.029,13.3009,4.60057,2470.646,2022-10-18T09:25:15Z
2022-10-18T07:26:23Z,42.805,6.029,13.3010,4.60056,2470.624,2022-10-18T09:28:18Z
2022-10-18T07:29:26Z,42.805,6.029,13.3012,4.60060,2470.624,2022-10-18T09:31:21Z
2022-10-18T07:32:29Z,42.805,6.029,13.3011,4.60063,2470.661,2022-10-18T09:34:24Z
2022-10-18T07:35:32Z,42.805,6.029,13.3013,4.60067,2470.624,2022-10-18T09:37:27Z
2022-10-18T07:38:35Z,42.805,6.029,13.3010,4.60062,2470.624,2022-10-18T09:40:30Z
2022-10-18T07:41:38Z,42.805,6.029,13.3013,4.60063,2470.637,2022-10-18T09:43:34Z
2022-10-18T07:44:41Z,42.805,6.029,13.3009,4.60057,2470.624,2022-10-18T09:46:37Z
2022-10-18T07:47:44Z,42.805,6.029,13.3014,4.60056,2470.646,2022-10-18T09:49:40Z
2022-10-18T07:50:47Z,42.805,6.029,13.3009,4.60064,2470.624,2022-10-18T09:52:43Z
2022-10-18T07:53:50Z,42.805,6.029,13.3010,4.60062,2470.646,2022-10-18T09:55:46Z
2022-10-18T07:56:54Z,42.805,6.029,13.3009,4.60062,2470.637,2022-10-18T09:58:49Z
2022-10-18T07:59:57Z,42.805,6.029,13.3014,4.60056,2470.661,2022-10-18T10:01:52Z
2022-10-18T08:03:00Z,42.805,6.029,13.3009,4.60058,2470.661,2022-10-18T10:04:55Z
2022-10-18T08:06:03Z,42.805,6.029,13.3009,4.60055,2470.646,2022-10-18T10:07:58Z
2022-10-18T08:09:06Z,42.805,6.029,13.3009,4.60055,2470.646,2022-10-18T10:11:01Z
2022-10-18T08:12:09Z,42.805,6.029,13.3009,4.60057,2470.646,2022-10-18T10:14:04Z
2022-10-18T08:15:12Z,42.805,6.029,13.3011,4.60059,2470.637,2022-10-18T10:17:07Z
2022-10-18T08:18:15Z,42.805,6.029,13.3012,4.60057,2470.646,2022-10-18T10:20:11Z
2022-10-18T08:21:18Z,42.805,6.029,13.3006,4.60058,2470.661,2022-10-18T10:23:14Z
2022-10-18T08:24:21Z,42.805,6.029,13.3008,4.60062,2470.646,2022-10-18T10:26:17Z
2022-10-18T08:27:24Z,42.805,6.029,13.3009,4.60063,2470.637,2022-10-18T10:29:20Z
2022-10-18T08:30:27Z,42.805,6.029,13.3008,4.60062,2470.646,2022-10-18T10:32:23Z
2022-10-18T08:33:30Z,42.805,6.029,13.3011,4.60062,2470.646,2022-10-18T10:35:26Z
2022-10-18T08:36:34Z,42.805,6.029,13.3011,4.60057,2470.624,2022-10-18T10:38:29Z
2022-10-18T08:39:37Z,42.805,6.029,13.3013,4.60062,2470.661,2022-10-18T10:41:32Z
2022-10-18T08:42:40Z,42.805,6.029,13.3013,4.60057,2470.67,2022-10-18T10:44:35Z
2022-10-18T08:45:43Z,42.805,6.029,13.3012,4.60062,2470.661,2022-10-18T10:47:38Z
2022-10-18T08:48:46Z,42.805,6.029,13.3011,4.60061,2470.67,2022-10-18T10:50:41Z
2022-10-18T08:51:49Z,42.805,6.029,13.3011,4.60062,2470.624,2022-10-18T10:53:44Z
2022-10-18T08:54:52Z,42.805,6.029,13.3009,4.60060,2470.67,2022-10-18T10:56:48Z
2022-10-18T08:57:55Z,42.805,6.029,13.3008,4.60061,2470.67,2022-10-18T10:59:51Z
2022-10-18T09:00:58Z,42.805,6.029,13.3009,4.60064,2470.67,2022-10-18T11:02:54Z
2022-10-18T09:04:01Z,42.805,6.029,13.3011,4.60062,2470.646,2022-10-18T11:05:57Z
2022-10-18T09:07:04Z,42.805,6.029,13.3010,4.60064,2470.646,2022-10-18T11:09:00Z
2022-10-18T09:10:08Z,42.805,6.029,13.3019,4.60072,2470.646,2022-10-18T11:12:03Z
2022-10-18T09:13:11Z,42.805,6.029,13.3061,4.60079,2470.637,2022-10-18T11:15:06Z
2022-10-18T09:16:14Z,42.805,6.029,13.3058,4.60070,2470.661,2022-10-18T11:18:09Z
2022-10-18T09:19:17Z,42.805,6.029,13.3021,4.60092,2470.646,2022-10-18T11:21:12Z
2022-10-18T09:22:20Z,42.805,6.029,13.3040,4.60071,2470.646,2022-10-18T11:24:15Z
2022-10-18T09:25:23Z,42.805,6.029,13.3008,4.60074,2470.693,2022-10-18T11:27:18Z
2022-10-18T09:28:26Z,42.805,6.029,13.3011,4.60064,2470.67,2022-10-18T11:30:21Z
2022-10-18T09:31:29Z,42.805,6.029,13.3008,4.60063,2470.67,2022-10-18T11:33:25Z
2022-10-18T09:34:32Z,42.805,6.029,13.3010,4.60068,2470.693,2022-10-18T11:36:28Z
2022-10-18T09:37:35Z,42.805,6.029,13.3014,4.60067,2470.693,2022-10-18T11:39:31Z
2022-10-18T09:40:38Z,42.805,6.029,13.3008,4.60067,2470.717,2022-10-18T11:42:34Z
2022-10-18T09:43:41Z,42.805,6.029,13.3010,4.60064,2470.67,2022-10-18T11:45:37Z
2022-10-18T09:46:45Z,42.805,6.029,13.3015,4.60068,2470.707,2022-10-18T11:48:40Z
2022-10-18T09:49:48Z,42.805,6.029,13.3016,4.60067,2470.67,2022-10-18T11:51:43Z
2022-10-18T09:52:51Z,42.805,6.029,13.3009,4.60064,2470.67,2022-10-18T11:54:46Z
2022-10-18T09:55:54Z,42.805,6.029,13.3016,4.60067,2470.684,2022-10-18T11:57:49Z
2022-10-18T09:58:57Z,42.805,6.029,13.3013,4.60064,2470.693,2022-10-18T12:00:52Z
2022-10-18T10:02:00Z,42.805,6.029,13.3008,4.60061,2470.67,2022-10-18T12:03:55Z
2022-10-18T10:05:03Z,42.805,6.029,13.3011,4.60059,2470.67,2022-10-18T12:06:58Z
2022-10-18T10:08:06Z,42.805,6.029,13.3014,4.60067,2470.707,2022-10-18T12:10:02Z
2022-10-18T10:11:09Z,42.805,6.029,13.3012,4.60060,2470.693,2022-10-18T12:13:05Z
2022-10-18T10:14:12Z,42.805,6.029,13.3009,4.60058,2470.646,2022-10-18T12:16:08Z
2022-10-18T10:17:15Z,42.805,6.029,13.3011,4.60059,2470.707,2022-10-18T12:19:11Z
2022-10-18T10:20:18Z,42.805,6.029,13.3009,4.60058,2470.646,2022-10-18T12:22:14Z
2022-10-18T10:23:21Z,42.805,6.029,13.3011,4.60057,2470.707,2022-10-18T12:25:17Z
2022-10-18T10:26:25Z,42.805,6.029,13.3011,4.60055,2470.67,2022-10-18T12:28:20Z
2022-10-18T10:29:28Z,42.805,6.029,13.3012,4.60055,2470.707,2022-10-18T12:31:23Z
2022-10-18T10:32:31Z,42.805,6.029,13.3013,4.60055,2470.67,2022-10-18T12:34:26Z
2022-10-18T10:35:34Z,42.805,6.029,13.3006,4.60066,2470.661,2022-10-18T12:37:29Z
2022-10-18T10:38:37Z,42.805,6.029,13.3015,4.60067,2470.693,2022-10-18T12:40:32Z
2022-10-18T10:41:40Z,42.805,6.029,13.3010,4.60069,2470.67,2022-10-18T12:43:35Z
2022-10-18T10:44:43Z,42.805,6.029,13.3013,4.60070,2470.67,2022-10-18T12:46:39Z
2022-10-18T10:47:46Z,42.805,6.029,13.3011,4.60060,2470.67,2022-10-18T12:49:42Z
2022-10-18T10:50:49Z,42.805,6.029,13.3011,4.60059,2470.707,2022-10-18T12:52:45Z
2022-10-18T10:53:52Z,42.805,6.029,13.3014,4.60053,2470.679,2022-10-18T12:55:48Z
2022-10-18T10:56:55Z,42.805,6.029,13.3011,4.60055,2470.707,2022-10-18T12:58:51Z
2022-10-18T10:59:59Z,42.805,6.029,13.3012,4.60062,2470.717,2022-10-18T13:01:54Z
2022-10-18T11:03:02Z,42.805,6.029,13.3007,4.60058,2470.707,2022-10-18T13:04:57Z
2022-10-18T11:06:05Z,42.805,6.029,13.3009,4.60057,2470.67,2022-10-18T13:08:00Z
2022-10-18T11:09:08Z,42.805,6.029,13.3011,4.60056,2470.717,2022-10-18T13:11:03Z
2022-10-18T11:12:11Z,42.805,6.029,13.3012,4.60059,2470.707,2022-10-18T13:14:06Z
2022-10-18T11:15:14Z,42.805,6.029,13.3015,4.60056,2470.707,2022-10-18T13:17:09Z
2022-10-18T11:18:17Z,42.805,6.029,13.3015,4.60058,2470.73,2022-10-18T13:20:12Z
2022-10-18T11:21:20Z,42.805,6.029,13.3009,4.60055,2470.717,2022-10-18T13:23:16Z
2022-10-18T11:24:23Z,42.805,6.029,13.3013,4.60061,2470.73,2022-10-18T13:26:19Z
2022-10-18T11:27:26Z,42.805,6.029,13.3012,4.60062,2470.754,2022-10-18T13:29:22Z
2022-10-18T11:30:29Z,42.805,6.029,13.3011,4.60059,2470.73,2022-10-18T13:32:25Z
2022-10-18T11:33:32Z,42.805,6.029,13.3014,4.60058,2470.73,2022-10-18T13:35:28Z
2022-10-18T11:36:36Z,42.805,6.029,13.3012,4.60057,2470.693,2022-10-18T13:38:31Z
2022-10-18T11:39:39Z,42.805,6.029,13.3009,4.60059,2470.73,2022-10-18T13:41:34Z
2022-10-18T11:42:42Z,42.805,6.029,13.3009,4.60055,2470.717,2022-10-18T13:44:37Z
2022-10-18T11:45:45Z,42.805,6.029,13.3010,4.60057,2470.73,2022-10-18T13:47:40Z
2022-10-18T11:48:48Z,42.805,6.029,13.3011,4.60064,2470.707,2022-10-18T13:50:43Z
2022-10-18T11:51:51Z,42.805,6.029,13.3016,4.60056,2470.707,2022-10-18T13:53:46Z
2022-10-18T11:54:54Z,42.805,6.029,13.3009,4.60057,2470.717,2022-10-18T13:56:49Z
2022-10-18T11:57:57Z,42.805,6.029,13.3011,4.60069,2470.73,2022-10-18T13:59:53Z
2022-10-18T12:01:00Z,42.805,6.029,13.3010,4.60057,2470.693,2022-10-18T14:02:56Z
2022-10-18T12:04:03Z,42.805,6.029,13.3012,4.60060,2470.717,2022-10-18T14:05:59Z
2022-10-18T12:07:06Z,42.805,6.029,13.3009,4.60058,2470.717,2022-10-18T14:09:02Z
2022-10-18T12:10:09Z,42.805,6.029,13.3009,4.60060,2470.684,2022-10-18T14:12:05Z
2022-10-18T12:13:12Z,42.805,6.029,13.3011,4.60061,2470.717,2022-10-18T14:15:08Z
2022-10-18T12:16:16Z,42.805,6.029,13.3008,4.60061,2470.717,2022-10-18T14:18:11Z
2022-10-18T12:19:19Z,42.805,6.029,13.3012,4.60059,2470.717,2022-10-18T14:21:14Z
2022-10-18T12:22:22Z,42.805,6.029,13.3008,4.60061,2470.73,2022-10-18T14:24:17Z
2022-10-18T12:25:25Z,42.805,6.029,13.3011,4.60059,2470.74,2022-10-18T14:27:20Z
2022-10-18T12:28:28Z,42.805,6.029,13.3009,4.60062,2470.717,2022-10-18T14:30:23Z
2022-10-18T12:31:31Z,42.805,6.029,13.3011,4.60072,2470.707,2022-10-18T14:33:26Z
2022-10-18T12:34:34Z,42.805,6.029,13.3014,4.60063,2470.73,2022-10-18T14:36:29Z
2022-10-18T12:37:37Z,42.805,6.029,13.3012,4.60059,2470.693,2022-10-18T14:39:33Z
2022-10-18T12:40:40Z,42.805,6.029,13.3011,4.60059,2470.74,2022-10-18T14:42:36Z
2022-10-18T12:43:43Z,42.805,6.029,13.3006,4.60062,2470.74,2022-10-18T14:45:39Z
2022-10-18T12:46:46Z,42.805,6.029,13.3012,4.60058,2470.754,2022-10-18T14:48:42Z
2022-10-18T12:49:49Z,42.805,6.029,13.3009,4.60063,2470.717,2022-10-18T14:51:45Z
2022-10-18T12:52:53Z,42.805,6.029,13.3013,4.60061,2470.73,2022-10-18T14:54:48Z
2022-10-18T12:55:56Z,42.805,6.029,13.3013,4.60064,2470.754,2022-10-18T14:57:51Z
2022-10-18T12:58:59Z,42.805,6.029,13.3019,4.60070,2470.754,2022-10-18T15:00:54Z
2022-10-18T13:02:02Z,42.805,6.029,13.3011,4.60068,2470.73,2022-10-18T15:03:57Z
2022-10-18T13:05:05Z,42.805,6.029,13.3011,4.60064,2470.717,2022-10-18T15:07:00Z
2022-10-18T13:08:08Z,42.805,6.029,13.3014,4.60059,2470.717,2022-10-18T15:10:03Z
2022-10-18T13:11:11Z,42.805,6.029,13.3014,4.60058,2470.74,2022-10-18T15:13:07Z
2022-10-18T13:14:14Z,42.805,6.029,13.3007,4.60059,2470.73,2022-10-18T15:16:10Z
2022-10-18T13:17:17Z,42.805,6.029,13.3014,4.60057,2470.73,2022-10-18T15:19:13Z
2022-10-18T13:20:20Z,42.805,6.029,13.3013,4.60057,2470.717,2022-10-18T15:22:16Z
2022-10-18T13:23:23Z,42.805,6.029,13.3010,4.60054,2470.754,2022-10-18T15:25:19Z
2022-10-18T13:26:26Z,42.805,6.029,13.3009,4.60058,2470.74,2022-10-18T15:28:22Z
2022-10-18T13:29:30Z,42.805,6.029,13.3015,4.60056,2470.763,2022-10-18T15:31:25Z
2022-10-18T13:32:33Z,42.805,6.029,13.3012,4.60057,2470.754,2022-10-18T15:34:28Z
2022-10-18T13:35:36Z,42.805,6.029,13.3009,4.60057,2470.717,2022-10-18T15:37:31Z
2022-10-18T13:38:39Z,42.805,6.029,13.3013,4.60058,2470.717,2022-10-18T15:40:34Z
2022-10-18T13:41:42Z,42.805,6.029,13.3013,4.60068,2470.717,2022-10-18T15:43:37Z
2022-10-18T13:44:45Z,42.805,6.029,13.3011,4.60057,2470.717,2022-10-18T15:46:40Z
2022-10-18T13:47:48Z,42.805,6.029,13.3009,4.60056,2470.74,2022-10-18T15:49:44Z
2022-10-18T13:50:51Z,42.805,6.029,13.3010,4.60058,2470.693,2022-10-18T15:52:47Z
2022-10-18T13:53:54Z,42.805,6.029,13.3012,4.60057,2470.74,2022-10-18T15:55:50Z
2022-10-18T13:56:57Z,42.805,6.029,13.3012,4.60064,2470.717,2022-10-18T15:58:53Z
2022-10-18T14:00:00Z,42.805,6.029,13.3013,4.60057,2470.74,2022-10-18T16:01:56Z
2022-10-18T14:03:03Z,42.805,6.029,13.3013,4.60055,2470.74,2022-10-18T16:04:59Z
2022-10-18T14:06:07Z,42.805,6.029,13.3014,4.60059,2470.754,2022-10-18T16:08:02Z
2022-10-18T14:09:10Z,42.805,6.029,13.3012,4.60056,2470.717,2022-10-18T16:11:05Z
2022-10-18T14:12:13Z,42.805,6.029,13.3013,4.60057,2470.717,2022-10-18T16:14:08Z
2022-10-18T14:15:16Z,42.805,6.029,13.3009,4.60057,2470.73,2022-10-18T16:17:11Z
2022-10-18T14:18:19Z,42.805,6.029,13.3014,4.60057,2470.73,2022-10-18T16:20:14Z
2022-10-18T14:21:22Z,42.805,6.029,13.3013,4.60055,2470.74,2022-10-18T16:23:17Z
2022-10-18T14:24:25Z,42.805,6.029,13.3011,4.60055,2470.717,2022-10-18T16:26:21Z
2022-10-18T14:27:28Z,42.805,6.029,13.3011,4.60056,2470.74,2022-10-18T16:29:24Z
2022-10-18T14:30:31Z,42.805,6.029,13.3009,4.60056,2470.74,2022-10-18T16:32:27Z
2022-10-18T14:33:34Z,42.805,6.029,13.3012,4.60059,2470.763,2022-10-18T16:35:30Z
2022-10-18T14:36:37Z,42.805,6.029,13.3011,4.60057,2470.74,2022-10-18T16:38:33Z
2022-10-18T14:39:40Z,42.805,6.029,13.3011,4.60056,2470.74,2022-10-18T16:41:36Z
2022-10-18T14:42:44Z,42.805,6.029,13.3011,4.60057,2470.73,2022-10-18T16:44:39Z
2022-10-18T14:45:47Z,42.805,6.029,13.3014,4.60055,2470.74,2022-10-18T16:47:42Z
2022-10-18T14:48:50Z,42.805,6.029,13.3010,4.60057,2470.754,2022-10-18T16:50:45Z
2022-10-18T14:51:53Z,42.805,6.029,13.3012,4.60058,2470.763,2022-10-18T16:53:48Z
2022-10-18T14:54:56Z,42.805,6.029,13.3012,4.60056,2470.707,2022-10-18T16:56:51Z
2022-10-18T14:57:59Z,42.805,6.029,13.3014,4.60054,2470.74,2022-10-18T16:59:54Z
2022-10-18T15:01:02Z,42.805,6.029,13.3013,4.60057,2470.763,2022-10-18T17:02:58Z